Location: Zagreb
(45.8000°N, 16.0000°E)
Time: 14:38:04
(UTC+02:00)

Vanguard 1 - Pass Details

Date: 08 August 2022
Orbit: 649 x 3832 km, 34.2° (Epoch: 25 September)

Event Time Altitude Azimuth Distance (km) Brightness Sun altitude
Rises 12:08:28 0° 281° (WNW) 7,930 14.5 58.3°
Reaches altitude 10° 12:14:47 10° 274° (W) 6,941 14.4 58.7°
Maximum altitude 12:33:03 32° 222° (SW) 4,733 14.3 59.7°
Drops below altitude 10° 12:46:52 10° 167° (SSE) 5,224 14.4 60.1°
Sets 12:50:50 0° 157° (SSE) 5,813 14.4 60.2°
